Waarnemingen

Advertentie
Mijn weer
Biarritz, Frankrijk (7602): temperatuur & dauwpunt: 18.08.2017 01:00:00 - 24.08.2017 01:00:00 (CEST)Biarritz, Frankrijk (7602): temperatuur 5cm: 18.08.2017 01:00:00 - 24.08.2017 01:00:00 (CEST)Biarritz, Frankrijk (7602): temperatuur -20cm & temperatuur -100cm: 18.08.2017 01:00:00 - 24.08.2017 01:00:00 (CEST)Biarritz, Frankrijk (7602): windsnelheid & windstoten: 18.08.2017 01:00:00 - 24.08.2017 01:00:00 (CEST)Biarritz, Frankrijk (7602): windrichting: 18.08.2017 01:00:00 - 24.08.2017 01:00:00 (CEST)Biarritz, Frankrijk (7602): luchtdruk: 18.08.2017 01:00:00 - 24.08.2017 01:00:00 (CEST)Biarritz, Frankrijk (7602): zicht: 18.08.2017 01:00:00 - 24.08.2017 01:00:00 (CEST)Biarritz, Frankrijk (7602): Zonneschijnduur: 18.08.2017 01:00:00 - 24.08.2017 01:00:00 (CEST)Biarritz, Frankrijk (7602): neerslag: 18.08.2017 01:00:00 - 24.08.2017 01:00:00 (CEST)
Datum & Tijd tt [°C] td [°C] tt 5cm [°C] tt -20cm [°C] tt -100cm [°C] ff [km/u] ff [kn] fx [km/u] fx [kn] dd ppp [hPa] vv [km] sd [min] rr [mm]
24.08.2017 01:00:00 19,5 17,5 17,4 22,9 21,3 0 0 8 5 N 1017,9 30 0 0,0
24.08.2017 00:00:00 20,2 17,0 19,1 23,0 21,3 6 3 9 5 ZO 1017,9 32 0 0,0
23.08.2017 23:00:00 20,5 16,5 19,7 23,1 21,3 3 1 10 5 WNW 1017,9 33 0 0,0
23.08.2017 22:00:00 20,3 16,9 19,7 23,2 21,3 6 4 20 11 N 1018,0 38 0 0,0
23.08.2017 21:00:00 20,8 17,6 20,4 23,2 21,2 12 6 20 11 N 1017,4 30 34 0,0
23.08.2017 20:00:00 22,0 17,6 22,6 23,2 21,3 11 6 20 11 NNW 1016,9 20 60 0,0
23.08.2017 19:00:00 22,1 17,5 23,0 23,2 21,3 13 7 19 11 N 1017,0 20 8 0,0
23.08.2017 18:00:00 22,7 16,9 24,9 23,1 21,3 7 4 17 9 NNO 1017,5 37 12 0,0
23.08.2017 17:00:00 22,4 17,1 24,6 22,9 21,2 10 6 18 10 N 1017,9 39 0 0,0
23.08.2017 16:00:00 23,1 16,6 25,9 22,7 21,2 10 5 18 10 NW 1017,9 20 10 0,0
23.08.2017 15:00:00 22,9 16,4 26,0 22,5 21,2 7 4 15 8 N 1018,2 36 14 0,0
23.08.2017 14:00:00 23,3 17,1 24,4 22,4 21,2 5 3 13 7 N 1018,2 19 0 0,0
23.08.2017 13:00:00 22,0 17,1 23,6 22,3 21,2 6 3 21 12 NNW 1018,6 20 0 0,0
23.08.2017 12:00:00 21,9 17,5 23,3 22,2 21,2 4 2 8 5 NNW 1018,9 16 0 0,0
23.08.2017 11:00:00 21,2 17,8 21,0 22,3 21,2 3 1 6 4 NO 1019,2 17 0 0,0
23.08.2017 10:00:00 20,5 17,5 20,8 22,3 21,2 3 1 5 3 ZZO 1019,1 16 0 0,0
23.08.2017 09:00:00 20,1 17,3 19,8 22,3 21,2 3 2 8 4 ZZW 1018,9 17 0 0,0
23.08.2017 08:00:00 20,1 17,3 19,8 22,4 21,2 5 3 12 6 ZZW 1019,1 18 0 0,0
23.08.2017 07:00:00 20,4 17,0 20,1 22,5 21,2 10 5 18 10 W 1018,9 29 0 0,0
23.08.2017 06:00:00 20,5 16,7 20,2 22,6 21,2 12 7 21 11 WNW 1018,5 20 0 0,0
23.08.2017 05:00:00 20,5 17,3 19,4 22,8 21,2 11 6 22 12 WNW 1018,8 19 0 0,0
23.08.2017 04:00:00 20,3 17,3 19,6 22,9 21,2 12 6 21 11 WNW 1018,7 17 0 0,0
23.08.2017 03:00:00 20,8 16,6 20,0 23,1 21,2 8 4 30 16 WZW 1019,2 20 0 0,0
23.08.2017 02:00:00 20,7 16,7 20,1 23,2 21,2 20 11 32 17 W 1019,2 20 0 0,0
23.08.2017 01:00:00 20,9 17,7 20,5 23,3 21,2 18 10 33 18 W 1019,2 17 0 0,0
23.08.2017 00:00:00 21,0 17,6 20,8 23,4 21,2 20 11 30 16 W 1019,2 18 0 0,0
22.08.2017 23:00:00 21,1 17,9 20,8 23,5 21,1 18 10 29 16 W 1018,9 16 0 0,0
22.08.2017 22:00:00 21,2 18,2 21,0 23,6 21,1 14 7 24 13 W 1018,5 15 0 0,0
22.08.2017 21:00:00 21,3 18,5 21,2 23,8 21,1 15 8 26 14 W 1017,8 15 0 0,0
22.08.2017 20:00:00 21,8 18,8 22,1 23,8 21,1 16 8 26 14 W 1017,6 14 0 0,0
22.08.2017 19:00:00 22,0 18,8 22,6 23,7 21,1 16 8 27 15 W 1017,9 14 0 0,0
22.08.2017 18:00:00 22,4 19,4 23,4 23,6 21,2 19 11 30 16 W 1017,5 13 2 0,0
22.08.2017 17:00:00 23,1 19,7 25,7 23,4 21,1 16 9 28 15 W 1017,4 11 34 0,0
22.08.2017 16:00:00 24,1 20,2 25,7 23,1 21,2 19 10 35 19 WNW 1017,1 11 43 0,0
22.08.2017 15:00:00 24,2 20,3 27,2 22,7 21,1 24 13 37 20 W 1017,0 17 54 0,0
22.08.2017 14:00:00 24,7 20,4 28,8 22,4 21,1 22 12 39 21 W 1016,8 17 60 0,0
22.08.2017 13:00:00 24,5 20,0 26,7 22,0 21,1 25 14 41 22 W 1016,4 20 50 0,0
22.08.2017 12:00:00 26,2 18,6 28,9 21,7 21,1 19 10 32 18 W 1015,6 20 53 0,0
22.08.2017 11:00:00 27,1 18,1 31,8 21,5 21,1 10 6 15 8 WNW 1015,0 49 60 0,0
22.08.2017 10:00:00 25,8 18,7 25,0 21,4 21,1 6 3 8 4 Z 1014,7 36 60 0,0
22.08.2017 09:00:00 21,9 17,1 18,6 21,5 21,1 4 2 7 4 OZO 1014,2 46 60 0,0
22.08.2017 08:00:00 19,0 16,2 16,3 21,6 21,1 4 2 14 8 ONO 1013,8 36 20 0,0
22.08.2017 07:00:00 18,3 15,9 16,0 21,7 21,1 6 3 14 7 NO 1013,2 60 0 0,0
22.08.2017 06:00:00 17,9 15,9 16,6 21,9 21,1 9 5 13 7 O 1012,6 59 0 0,0
22.08.2017 05:00:00 17,9 15,9 16,6 22,1 21,1 7 4 14 7 O 1012,9 60 0 0,0
22.08.2017 04:00:00 18,6 15,8 16,9 22,2 21,1 11 6 16 9 ONO 1013,2 60 0 0,0
22.08.2017 03:00:00 19,5 15,6 18,0 22,3 21,1 13 7 16 9 O 1013,2 60 0 0,0
22.08.2017 02:00:00 21,2 15,3 19,7 22,4 21,1 9 5 13 7 O 1013,2 60 0 0,0
22.08.2017 01:00:00 22,5 14,9 20,4 22,6 21,1 8 4 21 11 O 1013,5 60 0 0,0
22.08.2017 00:00:00 24,2 14,6 22,1 22,7 21,1 13 7 20 11 OZO 1014,1 60 0 0,0
21.08.2017 23:00:00 25,2 14,3 23,6 22,8 21,1 15 8 25 14 OZO 1014,0 60 0 0,0
21.08.2017 22:00:00 26,1 14,5 23,8 22,9 21,1 14 8 23 12 OZO 1014,0 60 0 0,0
21.08.2017 21:00:00 25,8 15,2 24,6 22,9 21,1 16 9 25 13 O 1014,1 60 37 0,0
21.08.2017 20:00:00 28,9 15,1 28,0 22,9 21,1 17 9 31 17 O 1014,2 57 60 0,0
21.08.2017 19:00:00 30,3 14,0 32,4 22,9 21,1 17 9 36 19 O 1014,6 30 60 0,0
21.08.2017 18:00:00 30,7 13,0 33,4 22,7 21,2 22 12 37 20 O 1015,1 20 60 0,0
21.08.2017 17:00:00 30,9 12,3 34,0 22,4 21,1 24 13 36 20 O 1015,6 24 60 0,0
21.08.2017 16:00:00 30,3 12,2 33,2 22,0 21,2 26 14 39 21 O 1016,3 24 60 0,0
21.08.2017 15:00:00 29,6 12,5 31,9 21,5 21,1 22 12 41 22 O 1017,5 26 60 0,0
21.08.2017 14:00:00 28,3 10,9 30,8 21,1 21,2 25 14 38 20 O 1017,8 29 60 0,0
21.08.2017 13:00:00 26,8 12,8 28,8 20,8 21,2 20 11 36 20 O 1018,6 32 60 0,0
21.08.2017 12:00:00 25,3 12,5 27,2 20,5 21,2 26 14 41 22 O 1018,9 33 60 0,0
21.08.2017 11:00:00 22,5 14,9 24,1 20,4 21,1 14 8 22 12 O 1019,8 38 60 0,0
21.08.2017 10:00:00 19,3 13,7 19,8 20,4 21,2 13 7 18 10 ONO 1020,4 39 60 0,0
21.08.2017 09:00:00 16,2 14,0 12,9 20,5 21,2 10 6 14 8 ONO 1020,9 37 60 0,0
21.08.2017 08:00:00 13,4 12,6 11,9 20,7 21,2 8 4 13 7 O 1021,0 27 21 0,0
21.08.2017 07:00:00 12,8 12,2 11,8 20,9 21,2 8 5 11 6 O 1021,2 19 0 0,0
21.08.2017 06:00:00 12,9 12,1 11,9 21,0 21,2 8 5 11 6 ONO 1021,5 16 0 0,0
21.08.2017 05:00:00 14,2 13,4 10,9 21,3 21,2 6 3 8 4 ONO 1022,0 8 0 0,0
21.08.2017 04:00:00 13,8 12,5 9,5 21,5 21,2 6 3 8 4 OZO 1022,4 25 0 0,0
21.08.2017 03:00:00 14,8 13,7 9,7 21,7 21,2 4 2 11 6 ZZO 1023,0 31 0 0,0
21.08.2017 02:00:00 15,0 13,4 11,5 21,8 21,2 6 3 9 5 ZZO 1023,4 38 0 0,0
21.08.2017 01:00:00 15,5 13,7 13,6 22,1 21,2 6 3 8 4 ZZO 1023,8 38 0 0,0
21.08.2017 00:00:00 16,1 13,9 14,3 22,2 21,2 4 2 7 4 Z 1023,9 40 0 0,0
20.08.2017 23:00:00 17,6 14,7 14,6 22,4 21,2 2 1 5 3 W 1024,2 37 0 0,0
20.08.2017 22:00:00 18,9 14,6 17,0 22,6 21,2 3 2 13 7 N 1024,2 41 0 0,0
20.08.2017 21:00:00 19,6 14,6 18,7 22,8 21,2 9 5 24 13 N 1024,1 53 39 0,0
20.08.2017 20:00:00 20,6 14,3 20,9 22,8 21,2 17 9 29 15 N 1024,1 37 60 0,0
20.08.2017 19:00:00 21,2 13,6 24,3 22,9 21,2 19 10 27 14 N 1024,1 45 60 0,0
20.08.2017 18:00:00 21,6 13,8 26,1 22,8 21,2 18 10 26 14 NNW 1024,5 40 60 0,0
20.08.2017 17:00:00 21,7 13,3 26,7 22,5 21,2 18 10 29 15 NNW 1024,8 44 60 0,0
20.08.2017 16:00:00 21,9 12,7 26,8 22,1 21,2 16 8 26 14 NNW 1025,1 46 60 0,0
20.08.2017 15:00:00 21,7 13,3 27,6 21,6 21,2 20 11 32 17 NW 1025,5 53 60 0,0
20.08.2017 14:00:00 22,1 12,9 28,7 21,1 21,2 8 4 18 10 O 1025,6 55 60 0,0
20.08.2017 13:00:00 21,9 13,0 27,5 20,7 21,2 4 2 23 12 O 1025,9 46 60 0,0
20.08.2017 12:00:00 20,2 12,4 25,3 20,4 21,2 9 5 18 10 O 1026,7 39 60 0,0
20.08.2017 11:00:00 18,8 12,1 22,2 20,3 21,2 8 4 16 9 OZO 1026,7 30 60 0,0
20.08.2017 10:00:00 17,2 12,3 19,5 20,3 21,2 9 5 14 7 O 1026,5 49 60 0,0
20.08.2017 09:00:00 15,5 12,1 12,5 20,4 21,2 5 3 11 6 ZZO 1026,4 32 60 0,0
20.08.2017 08:00:00 12,7 11,3 10,5 20,6 21,2 6 4 10 6 ZZO 1026,4 37 22 0,0
20.08.2017 07:00:00 12,0 10,7 10,8 20,8 21,2 5 3 13 7 OZO 1026,1 46 0 0,0
20.08.2017 06:00:00 14,3 11,1 12,9 21,0 21,2 6 3 9 5 O 1025,8 48 0 0,0
20.08.2017 05:00:00 15,4 11,0 13,7 21,1 21,2 5 3 10 5 NO 1025,7 46 0 0,0
20.08.2017 04:00:00 15,3 12,1 9,8 21,4 21,2 6 3 11 6 NNO 1025,8 52 0 0,0
20.08.2017 03:00:00 13,8 12,2 11,5 21,5 21,2 5 3 9 5 ZZO 1025,9 42 0 0,0
20.08.2017 02:00:00 15,2 12,3 12,4 21,7 21,2 4 2 6 4 Z 1026,1 43 0 0,0
20.08.2017 01:00:00 16,4 11,8 12,1 21,9 21,2 2 1 9 5 O 1026,4 54 0 0,0
20.08.2017 00:00:00 17,0 11,7 13,9 22,2 21,2 5 3 13 7 NNO 1026,0 60 0 0,0
19.08.2017 23:00:00 17,9 12,6 14,7 22,4 21,2 5 3 12 7 NNO 1025,6 49 0 0,0
19.08.2017 22:00:00 18,6 12,8 17,1 22,5 21,2 4 2 23 12 NNO 1024,9 59 0 0,0
19.08.2017 21:00:00 19,3 12,3 18,7 22,7 21,2 11 6 25 13 N 1024,5 60 40 0,0
19.08.2017 20:00:00 20,5 13,0 20,6 22,9 21,2 14 8 29 16 N 1024,1 39 60 0,0
19.08.2017 19:00:00 20,8 12,7 24,1 22,9 21,2 18 10 32 17 NNW 1024,1 32 60 0,0
19.08.2017 18:00:00 21,4 13,3 25,6 22,9 21,3 18 10 29 16 NNW 1024,0 27 60 0,0
19.08.2017 17:00:00 21,4 12,8 26,4 22,7 21,2 17 9 33 18 N 1024,0 22 60 0,0
19.08.2017 16:00:00 22,2 13,5 26,9 22,4 21,3 19 11 30 16 N 1024,1 23 60 0,0
19.08.2017 15:00:00 21,7 14,3 26,6 22,1 21,3 17 9 26 14 NNW 1024,1 25 60 0,0
19.08.2017 14:00:00 21,9 16,0 23,2 21,7 21,2 13 7 35 19 NNW 1023,9 38 36 0,0
19.08.2017 13:00:00 21,4 14,1 23,2 21,4 21,3 10 6 19 10 ONO 1024,0 34 27 0,0
19.08.2017 12:00:00 20,9 15,2 22,5 21,2 21,2 11 6 21 12 ONO 1024,1 20 43 0,0
19.08.2017 11:00:00 20,6 16,2 20,7 21,1 21,3 11 6 23 12 ONO 1024,4 35 26 0,0
19.08.2017 10:00:00 18,9 16,1 20,0 21,1 21,3 13 7 22 12 O 1024,2 34 48 0,0
19.08.2017 09:00:00 18,3 17,0 17,8 21,2 21,3 7 4 10 5 O 1023,9 12 3 0,0
19.08.2017 08:00:00 17,7 16,6 16,1 21,3 21,3 4 2 6 4 ONO 1023,4 12 0 0,0
19.08.2017 07:00:00 17,5 16,7 16,9 21,4 21,3 5 3 11 6 ONO 1022,8 33 0 0,0
19.08.2017 06:00:00 17,2 16,6 14,5 21,5 21,3 7 4 9 5 O 1022,6 35 0 0,0
19.08.2017 05:00:00 17,2 16,2 16,0 21,7 21,3 7 4 10 6 O 1022,7 24 0 0,0
19.08.2017 04:00:00 17,9 16,8 16,5 21,8 21,3 5 3 8 4 O 1023,0 25 0 0,0
19.08.2017 03:00:00 18,8 17,1 17,5 21,9 21,3 6 3 12 6 ONO 1022,9 36 0 0,0
19.08.2017 02:00:00 18,9 17,6 17,2 22,0 21,3 2 1 9 5 ONO 1023,1 38 0 0,0
19.08.2017 01:00:00 18,2 17,2 15,2 22,2 21,3 0 0 7 4 N 1023,1 15 0 0,0
19.08.2017 00:00:00 18,6 17,3 15,8 22,3 21,3 3 1 4 2 ZZW 1023,2 45 0 0,0
18.08.2017 23:00:00 19,5 17,3 16,1 22,4 21,3 0 0 11 6 N 1023,0 56 0 0,0
18.08.2017 22:00:00 20,1 17,3 19,1 22,5 21,2 6 3 13 7 NW 1022,9 60 0 0,0
18.08.2017 21:00:00 20,5 18,1 20,3 22,5 21,2 3 2 10 5 W 1022,0 18 0 0,0
18.08.2017 20:00:00 21,0 17,4 21,5 22,5 21,2 6 3 15 8 W 1022,0 60 25 0,0
18.08.2017 19:00:00 21,8 18,0 22,9 22,5 21,2 12 6 17 9 NW 1022,1 56 49 0,0
18.08.2017 18:00:00 21,2 18,2 20,4 22,5 21,2 10 6 21 11 NW 1022,0 60 0 0,0
18.08.2017 17:00:00 21,2 17,8 20,4 22,4 21,2 14 7 26 14 NW 1021,8 40 0 0,2
18.08.2017 16:00:00 20,7 19,0 20,0 22,3 21,2 11 6 23 13 NW 1021,6 6 0 0,4
18.08.2017 15:00:00 21,6 19,5 21,2 22,3 21,2 5 3 12 6 WZW 1021,5 36 0 0,0
18.08.2017 14:00:00 21,2 19,5 21,6 22,3 21,2 5 3 11 6 WZW 1021,3 20 0 0,0
18.08.2017 13:00:00 20,8 19,5 20,0 22,2 21,2 4 2 11 6 ZZW 1020,9 20 0 0,0
18.08.2017 12:00:00 20,0 19,0 19,8 22,3 21,2 9 5 30 16 WNW 1021,0 10 0 2,0
18.08.2017 11:00:00 20,8 19,3 20,2 22,3 21,2 9 5 18 10 W 1020,4 20 0 0,0
18.08.2017 10:00:00 20,4 19,1 20,0 22,3 21,2 7 4 11 6 W 1020,0 17 0 0,0
18.08.2017 09:00:00 20,2 18,7 19,8 22,4 21,2 4 2 8 4 WZW 1019,7 27 0 0,0
18.08.2017 08:00:00 19,8 18,3 19,4 22,5 21,2 3 2 8 4 ZW 1019,1 32 0 0,0
18.08.2017 07:00:00 19,6 18,1 19,3 22,6 21,2 5 3 8 4 ZZO 1018,7 29 0 0,0
18.08.2017 06:00:00 20,4 18,3 20,0 22,7 21,2 4 2 11 6 Z 1019,0 34 0 0,0
18.08.2017 05:00:00 20,8 18,7 20,5 22,7 21,1 6 3 9 5 WNW 1019,2 44 0 0,0
18.08.2017 04:00:00 20,8 18,9 19,4 22,9 21,2 5 3 13 7 NW 1019,3 43 0 0,0
18.08.2017 03:00:00 20,2 18,7 18,6 23,1 21,1 5 3 11 6 NW 1019,4 38 0 0,0
18.08.2017 02:00:00 20,1 18,6 18,4 23,2 21,1 9 5 12 6 NW 1019,6 36 0 0,0
18.08.2017 01:00:00 20,4 18,5 18,9 23,4 21,1 6 3 14 8 WNW 1019,4 34 0 0,0

tt = temperatuur
td = dauwpunt
tt 5cm = temperatuur 5cm
tt -20cm = temperatuur -20cm
tt -100cm = temperatuur -100cm
ff = windsnelheid
fx = windstoten
dd = windrichting
ppp = luchtdruk
vv = zicht
sd = Zonneschijnduur
rr = neerslag

Weerstations in de omgeving